Time,TemperatureF,DewpointF,PressureIn,WindDirection,WindDirectionDegrees,WindSpeedMPH,WindSpeedGustMPH,Humidity,HourlyPrecipIn,Conditions,Clouds,dailyrainin,SoftwareType,DateUTC
2013-03-10 00:00:00,65.0,61.0,29.24,SSE,165,0.0,0.0,87,0.00,,,0.00,VWS V14.01,2013-03-10 06:00:00,
2013-03-10 00:05:00,65.0,61.0,29.23,SSE,162,3.0,5.0,87,0.00,,,0.00,VWS V14.01,2013-03-10 06:05:00,
2013-03-10 00:10:00,64.9,60.9,29.20,SSE,155,9.0,9.0,87,0.00,,,0.00,VWS V14.01,2013-03-10 06:10:00,
2013-03-10 00:15:00,64.9,60.9,29.23,South,172,0.0,10.0,87,0.00,,,0.00,VWS V14.01,2013-03-10 06:15:00,
2013-03-10 00:20:00,64.9,61.3,29.24,SE,135,0.0,0.0,88,0.00,,,0.00,VWS V14.01,2013-03-10 06:20:00,
2013-03-10 00:25:00,65.0,61.4,29.23,SSW,194,0.0,7.0,88,0.00,,,0.00,VWS V14.01,2013-03-10 06:25:00,
2013-03-10 00:30:00,65.0,61.4,29.22,SE,138,1.0,2.0,88,0.00,,,0.00,VWS V14.01,2013-03-10 06:30:00,
2013-03-10 00:35:00,64.9,61.3,29.22,South,179,2.0,8.0,88,0.00,,,0.00,VWS V14.01,2013-03-10 06:35:00,
2013-03-10 00:40:00,64.8,61.2,29.23,South,169,0.0,1.0,88,0.00,,,0.00,VWS V14.01,2013-03-10 06:40:00,
2013-03-10 00:45:00,64.7,61.1,29.24,SSW,201,0.0,5.0,88,0.00,,,0.00,VWS V14.01,2013-03-10 06:45:00,
2013-03-10 00:50:00,64.7,61.4,29.24,SSW,200,2.0,4.0,89,0.00,,,0.00,VWS V14.01,2013-03-10 06:50:00,
2013-03-10 00:55:00,64.7,61.4,29.23,SE,143,3.0,5.0,89,0.01,,,0.01,VWS V14.01,2013-03-10 06:55:00,
2013-03-10 00:59:00,63.6,60.9,29.18,South,190,2.0,8.0,91,0.09,,,0.09,VWS V14.01,2013-03-10 06:59:00,
2013-03-10 01:00:00,64.5,61.2,29.21,SSE,151,1.0,1.0,89,0.01,,,0.01,VWS V14.01,2013-03-10 07:00:00,
2013-03-10 01:05:00,64.5,61.2,29.21,South,172,0.0,6.0,89,0.02,,,0.02,VWS V14.01,2013-03-10 07:05:00,
2013-03-10 01:10:00,64.4,61.1,29.21,South,178,2.0,2.0,89,0.02,,,0.02,VWS V14.01,2013-03-10 07:10:00,
2013-03-10 01:15:00,64.3,61.3,29.21,SSE,151,0.0,7.0,90,0.03,,,0.03,VWS V14.01,2013-03-10 07:15:00,
2013-03-10 01:20:00,64.1,61.1,29.21,SSE,168,4.0,5.0,90,0.03,,,0.03,VWS V14.01,2013-03-10 07:20:00,
2013-03-10 01:25:00,64.1,61.1,29.20,South,170,3.0,6.0,90,0.04,,,0.04,VWS V14.01,2013-03-10 07:25:00,
2013-03-10 01:30:00,64.0,61.0,29.20,SSE,148,1.0,2.0,90,0.05,,,0.05,VWS V14.01,2013-03-10 07:30:00,
2013-03-10 01:35:00,64.0,61.0,29.20,SSE,153,0.0,9.0,90,0.06,,,0.06,VWS V14.01,2013-03-10 07:35:00,
2013-03-10 01:40:00,63.9,61.2,29.20,SE,142,1.0,1.0,91,0.06,,,0.06,VWS V14.01,2013-03-10 07:40:00,
2013-03-10 01:45:00,63.8,61.1,29.19,SSE,158,1.0,7.0,91,0.08,,,0.08,VWS V14.01,2013-03-10 07:45:00,
2013-03-10 01:50:00,63.8,61.1,29.19,SSE,161,3.0,4.0,91,0.08,,,0.08,VWS V14.01,2013-03-10 07:50:00,
2013-03-10 01:55:00,63.7,61.0,29.19,SE,135,0.0,8.0,91,0.08,,,0.08,VWS V14.01,2013-03-10 07:55:00,
2013-03-10 03:00:00,63.6,60.9,29.18,SE,130,1.0,5.0,91,0.08,,,0.09,VWS V14.01,2013-03-10 08:00:00,
2013-03-10 03:05:00,63.6,61.2,29.18,SSW,194,3.0,7.0,92,0.08,,,0.09,VWS V14.01,2013-03-10 08:05:00,
2013-03-10 03:10:00,63.5,61.1,29.18,South,175,0.0,2.0,92,0.08,,,0.10,VWS V14.01,2013-03-10 08:10:00,
2013-03-10 03:15:00,63.5,61.1,29.18,SSW,202,1.0,4.0,92,0.08,,,0.10,VWS V14.01,2013-03-10 08:15:00,
2013-03-10 03:20:00,63.4,61.0,29.19,SE,139,1.0,1.0,92,0.07,,,0.10,VWS V14.01,2013-03-10 08:20:00,
2013-03-10 03:25:00,63.4,61.0,29.19,South,190,1.0,3.0,92,0.07,,,0.10,VWS V14.01,2013-03-10 08:25:00,
2013-03-10 03:30:00,63.4,61.0,29.18,South,188,2.0,2.0,92,0.06,,,0.10,VWS V14.01,2013-03-10 08:30:00,
2013-03-10 03:35:00,63.4,61.0,29.17,South,186,0.0,4.0,92,0.06,,,0.10,VWS V14.01,2013-03-10 08:35:00,
2013-03-10 03:40:00,63.4,61.0,29.17,South,177,0.0,2.0,92,0.05,,,0.11,VWS V14.01,2013-03-10 08:40:00,
2013-03-10 03:45:00,63.4,61.0,29.17,SE,142,1.0,4.0,92,0.05,,,0.11,VWS V14.01,2013-03-10 08:45:00,
2013-03-10 03:50:00,63.4,61.0,29.17,SSE,148,0.0,0.0,92,0.04,,,0.12,VWS V14.01,2013-03-10 08:50:00,
2013-03-10 03:55:00,63.3,60.9,29.17,SSE,148,0.0,2.0,92,0.06,,,0.14,VWS V14.01,2013-03-10 08:55:00,
2013-03-10 04:00:00,63.3,60.9,29.17,SSE,148,0.0,0.0,92,0.13,,,0.22,VWS V14.01,2013-03-10 09:00:00,
2013-03-10 04:05:00,63.3,60.9,29.17,SSW,200,2.0,3.0,92,0.18,,,0.27,VWS V14.01,2013-03-10 09:05:00,
2013-03-10 04:10:00,62.7,60.0,29.21,WNW,299,5.0,10.0,91,0.27,,,0.37,VWS V14.01,2013-03-10 09:10:00,
2013-03-10 04:15:00,60.1,57.2,29.18,North,5,7.0,15.0,90,0.56,,,0.66,VWS V14.01,2013-03-10 09:15:00,
2013-03-10 04:20:00,58.4,55.5,29.19,NW,324,9.0,12.0,90,0.70,,,0.80,VWS V14.01,2013-03-10 09:20:00,
2013-03-10 04:25:00,57.5,54.9,29.20,North,355,6.0,14.0,91,0.75,,,0.85,VWS V14.01,2013-03-10 09:25:00,
2013-03-10 04:30:00,57.2,54.9,29.23,NNW,328,4.0,4.0,92,0.78,,,0.88,VWS V14.01,2013-03-10 09:30:00,
2013-03-10 04:35:00,57.1,54.8,29.22,NNE,27,5.0,5.0,92,0.82,,,0.92,VWS V14.01,2013-03-10 09:35:00,
2013-03-10 04:40:00,56.9,54.6,29.20,NNE,17,3.0,5.0,92,0.87,,,0.97,VWS V14.01,2013-03-10 09:40:00,
2013-03-10 04:45:00,56.8,54.5,29.21,NW,319,3.0,6.0,92,0.88,,,0.98,VWS V14.01,2013-03-10 09:45:00,
2013-03-10 04:50:00,56.8,54.5,29.22,NW,323,0.0,4.0,92,0.86,,,0.98,VWS V14.01,2013-03-10 09:50:00,
2013-03-10 04:55:00,56.7,54.4,29.22,North,355,2.0,7.0,92,0.86,,,0.98,VWS V14.01,2013-03-10 09:55:00,
2013-03-10 05:00:00,56.7,54.7,29.22,NNE,15,3.0,3.0,93,0.76,,,0.98,VWS V14.01,2013-03-10 10:00:00,
2013-03-10 05:05:00,56.7,54.7,29.23,North,349,2.0,5.0,93,0.76,,,0.98,VWS V14.01,2013-03-10 10:05:00,
2013-03-10 05:10:00,56.7,54.7,29.23,North,349,0.0,0.0,93,0.63,,,0.98,VWS V14.01,2013-03-10 10:10:00,
2013-03-10 05:15:00,56.6,54.6,29.23,North,349,1.0,3.0,93,0.63,,,0.98,VWS V14.01,2013-03-10 10:15:00,
2013-03-10 05:20:00,56.6,54.6,29.23,North,349,1.0,1.0,93,0.19,,,0.98,VWS V14.01,2013-03-10 10:20:00,
2013-03-10 05:25:00,56.6,54.6,29.22,NW,324,4.0,5.0,93,0.19,,,0.98,VWS V14.01,2013-03-10 10:25:00,
2013-03-10 05:30:00,56.7,54.7,29.22,NNW,348,2.0,3.0,93,0.10,,,0.98,VWS V14.01,2013-03-10 10:30:00,
2013-03-10 05:35:00,56.7,54.7,29.23,NNW,338,5.0,8.0,93,0.10,,,0.98,VWS V14.01,2013-03-10 10:35:00,
2013-03-10 05:40:00,56.7,54.7,29.23,NNW,348,2.0,4.0,93,0.01,,,0.98,VWS V14.01,2013-03-10 10:40:00,
2013-03-10 05:45:00,56.6,54.6,29.23,NNW,346,5.0,6.0,93,0.01,,,0.98,VWS V14.01,2013-03-10 10:45:00,
2013-03-10 05:50:00,56.4,54.4,29.23,NNW,335,4.0,5.0,93,0.00,,,0.98,VWS V14.01,2013-03-10 10:50:00,
2013-03-10 05:55:00,56.1,54.1,29.23,NNW,328,5.0,9.0,93,0.00,,,0.98,VWS V14.01,2013-03-10 10:55:00,
2013-03-10 06:00:00,55.9,53.9,29.22,NNE,15,6.0,8.0,93,0.00,,,0.98,VWS V14.01,2013-03-10 11:00:00,
2013-03-10 06:05:00,55.8,53.8,29.23,NNW,342,8.0,9.0,93,0.00,,,0.98,VWS V14.01,2013-03-10 11:05:00,
2013-03-10 06:10:00,55.7,53.7,29.24,NNW,333,5.0,5.0,93,0.00,,,0.98,VWS V14.01,2013-03-10 11:10:00,
2013-03-10 06:15:00,55.7,53.4,29.24,North,360,2.0,9.0,92,0.00,,,0.98,VWS V14.01,2013-03-10 11:15:00,
2013-03-10 06:20:00,55.5,53.2,29.24,NNW,346,7.0,8.0,92,0.00,,,0.98,VWS V14.01,2013-03-10 11:20:00,
2013-03-10 06:25:00,55.4,53.1,29.24,North,360,7.0,9.0,92,0.00,,,0.98,VWS V14.01,2013-03-10 11:25:00,
2013-03-10 06:30:00,55.4,52.8,29.24,NNW,346,4.0,4.0,91,0.00,,,0.98,VWS V14.01,2013-03-10 11:30:00,
2013-03-10 06:35:00,55.4,52.5,29.25,NW,311,5.0,12.0,90,0.00,,,0.98,VWS V14.01,2013-03-10 11:35:00,
2013-03-10 06:40:00,55.4,52.2,29.25,NNW,333,4.0,5.0,89,0.00,,,0.98,VWS V14.01,2013-03-10 11:40:00,
2013-03-10 06:45:00,55.4,51.6,29.25,North,355,6.0,9.0,87,0.00,,,0.98,VWS V14.01,2013-03-10 11:45:00,
2013-03-10 06:50:00,55.4,51.0,29.26,NW,315,4.0,4.0,85,0.00,,,0.98,VWS V14.01,2013-03-10 11:50:00,
2013-03-10 06:55:00,55.5,50.8,29.26,North,9,4.0,7.0,84,0.00,,,0.98,VWS V14.01,2013-03-10 11:55:00,
2013-03-10 07:00:00,55.5,50.4,29.26,NW,310,3.0,6.0,83,0.00,,,0.98,VWS V14.01,2013-03-10 12:00:00,
2013-03-10 07:05:00,55.5,49.8,29.27,WNW,303,3.0,11.0,81,0.00,,,0.98,VWS V14.01,2013-03-10 12:05:00,
2013-03-10 07:10:00,55.6,49.5,29.28,North,355,4.0,5.0,80,0.00,,,0.98,VWS V14.01,2013-03-10 12:10:00,
2013-03-10 07:15:00,55.7,49.3,29.28,NNW,334,6.0,6.0,79,0.00,,,0.98,VWS V14.01,2013-03-10 12:15:00,
2013-03-10 07:20:00,55.7,49.3,29.28,North,350,0.0,0.0,79,0.01,,,0.99,VWS V14.01,2013-03-10 12:20:00,
2013-03-10 07:25:00,55.7,49.6,29.29,North,350,0.0,3.0,80,0.01,,,0.99,VWS V14.01,2013-03-10 12:25:00,
2013-03-10 07:30:00,55.7,49.6,29.30,North,350,0.0,0.0,80,0.01,,,0.99,VWS V14.01,2013-03-10 12:30:00,
2013-03-10 07:35:00,55.5,49.8,29.28,North,350,0.0,0.0,81,0.02,,,1.00,VWS V14.01,2013-03-10 12:35:00,
2013-03-10 07:40:00,55.4,50.0,29.27,North,350,0.0,0.0,82,0.02,,,1.00,VWS V14.01,2013-03-10 12:40:00,
2013-03-10 07:45:00,55.1,49.7,29.28,North,350,0.0,0.0,82,0.02,,,1.00,VWS V14.01,2013-03-10 12:45:00,
2013-03-10 07:50:00,55.1,50.0,29.28,North,350,0.0,0.0,83,0.02,,,1.00,VWS V14.01,2013-03-10 12:50:00,
2013-03-10 07:55:00,55.0,49.9,29.28,North,351,0.0,0.0,83,0.02,,,1.00,VWS V14.01,2013-03-10 12:55:00,
2013-03-10 08:00:00,54.9,50.2,29.27,North,351,0.0,0.0,84,0.02,,,1.00,VWS V14.01,2013-03-10 13:00:00,
2013-03-10 08:05:00,54.8,50.4,29.27,North,351,0.0,0.0,85,0.02,,,1.00,VWS V14.01,2013-03-10 13:05:00,
2013-03-10 08:10:00,54.7,50.3,29.28,North,350,0.0,0.0,85,0.02,,,1.00,VWS V14.01,2013-03-10 13:10:00,
2013-03-10 08:15:00,54.6,50.5,29.28,North,350,0.0,0.0,86,0.02,,,1.00,VWS V14.01,2013-03-10 13:15:00,
2013-03-10 08:20:00,54.6,50.5,29.28,North,351,0.0,0.0,86,0.01,,,1.00,VWS V14.01,2013-03-10 13:20:00,
2013-03-10 08:25:00,54.5,50.7,29.28,North,350,0.0,0.0,87,0.01,,,1.00,VWS V14.01,2013-03-10 13:25:00,
2013-03-10 08:30:00,54.5,50.7,29.28,North,350,0.0,0.0,87,0.01,,,1.00,VWS V14.01,2013-03-10 13:30:00,
2013-03-10 08:35:00,54.5,50.7,29.27,North,350,0.0,0.0,87,0.01,,,1.00,VWS V14.01,2013-03-10 13:35:00,
2013-03-10 08:40:00,54.5,51.0,29.28,North,350,0.0,0.0,88,0.00,,,1.00,VWS V14.01,2013-03-10 13:40:00,
2013-03-10 08:45:00,54.6,51.1,29.29,North,350,0.0,0.0,88,0.00,,,1.00,VWS V14.01,2013-03-10 13:45:00,
2013-03-10 08:50:00,54.7,51.5,29.29,North,351,0.0,0.0,89,0.00,,,1.00,VWS V14.01,2013-03-10 13:50:00,
2013-03-10 08:55:00,54.7,51.5,29.29,North,350,0.0,0.0,89,0.00,,,1.00,VWS V14.01,2013-03-10 13:55:00,
2013-03-10 09:00:00,54.8,51.6,29.29,North,350,0.0,0.0,89,0.00,,,1.00,VWS V14.01,2013-03-10 14:00:00,
2013-03-10 09:05:00,54.8,51.6,29.30,North,350,0.0,0.0,89,0.00,,,1.00,VWS V14.01,2013-03-10 14:05:00,
2013-03-10 09:10:00,54.8,51.6,29.29,North,350,0.0,0.0,89,0.00,,,1.00,VWS V14.01,2013-03-10 14:10:00,
2013-03-10 09:15:00,54.8,51.9,29.29,North,350,0.0,0.0,90,0.00,,,1.00,VWS V14.01,2013-03-10 14:15:00,
2013-03-10 09:20:00,54.9,52.0,29.30,North,351,0.0,0.0,90,0.00,,,1.00,VWS V14.01,2013-03-10 14:20:00,
2013-03-10 09:25:00,55.3,52.7,29.31,North,350,0.0,0.0,91,0.00,,,1.00,VWS V14.01,2013-03-10 14:25:00,
2013-03-10 09:30:00,55.6,52.7,29.31,North,351,0.0,0.0,90,0.00,,,1.00,VWS V14.01,2013-03-10 14:30:00,
2013-03-10 09:35:00,55.6,52.7,29.31,North,350,0.0,0.0,90,0.00,,,1.00,VWS V14.01,2013-03-10 14:35:00,
2013-03-10 09:40:00,55.6,52.7,29.32,North,350,0.0,0.0,90,0.00,,,1.00,VWS V14.01,2013-03-10 14:40:00,
2013-03-10 09:45:00,55.7,52.8,29.32,North,351,0.0,0.0,90,0.00,,,1.00,VWS V14.01,2013-03-10 14:45:00,
2013-03-10 09:50:00,55.8,53.2,29.33,North,351,0.0,1.0,91,0.00,,,1.00,VWS V14.01,2013-03-10 14:50:00,
2013-03-10 09:55:00,56.1,53.2,29.33,North,350,0.0,4.0,90,0.00,,,1.00,VWS V14.01,2013-03-10 14:55:00,
2013-03-10 10:00:00,56.1,53.2,29.34,NW,319,4.0,4.0,90,0.00,,,1.00,VWS V14.01,2013-03-10 15:00:00,
2013-03-10 10:05:00,56.1,52.9,29.35,NW,316,2.0,6.0,89,0.00,,,1.00,VWS V14.01,2013-03-10 15:05:00,
2013-03-10 10:10:00,55.8,52.0,29.35,WNW,284,1.0,2.0,87,0.00,,,1.00,VWS V14.01,2013-03-10 15:10:00,
2013-03-10 10:15:00,55.7,51.3,29.36,WNW,298,0.0,6.0,85,0.00,,,1.00,VWS V14.01,2013-03-10 15:15:00,
2013-03-10 10:20:00,55.7,50.6,29.36,NNW,348,2.0,2.0,83,0.00,,,1.00,VWS V14.01,2013-03-10 15:20:00,
2013-03-10 10:25:00,55.9,50.2,29.37,NW,304,0.0,8.0,81,0.00,,,1.00,VWS V14.01,2013-03-10 15:25:00,
2013-03-10 10:30:00,55.8,49.4,29.37,NNW,344,4.0,4.0,79,0.00,,,1.00,VWS V14.01,2013-03-10 15:30:00,
2013-03-10 10:35:00,55.9,50.2,29.38,WNW,300,4.0,9.0,81,0.00,,,1.00,VWS V14.01,2013-03-10 15:35:00,
2013-03-10 10:40:00,55.8,49.4,29.38,WNW,295,2.0,6.0,79,0.00,,,1.00,VWS V14.01,2013-03-10 15:40:00,
2013-03-10 10:45:00,55.5,48.4,29.39,West,280,4.0,7.0,77,0.00,,,1.00,VWS V14.01,2013-03-10 15:45:00,
2013-03-10 10:50:00,55.3,46.4,29.39,NNW,340,4.0,8.0,72,0.00,,,1.00,VWS V14.01,2013-03-10 15:50:00,
2013-03-10 10:55:00,55.8,47.3,29.39,North,360,1.0,8.0,73,0.00,,,1.00,VWS V14.01,2013-03-10 15:55:00,
2013-03-10 11:00:00,56.3,48.8,29.39,NW,323,6.0,6.0,76,0.00,,,1.00,VWS V14.01,2013-03-10 16:00:00,
2013-03-10 11:05:00,57.6,48.7,29.39,NW,314,6.0,9.0,72,0.00,,,1.00,VWS V14.01,2013-03-10 16:05:00,
2013-03-10 11:11:00,56.8,43.1,29.40,NW,326,7.0,7.0,60,0.00,,,1.00,VWS V14.01,2013-03-10 16:11:00,
2013-03-10 11:15:00,55.9,43.9,29.40,NNW,344,9.0,17.0,64,0.00,,,1.00,VWS V14.01,2013-03-10 16:15:00,
2013-03-10 11:20:00,56.2,45.4,29.39,WNW,300,7.0,13.0,67,0.00,,,1.00,VWS V14.01,2013-03-10 16:20:00,
2013-03-10 11:25:00,56.5,44.1,29.40,North,355,6.0,13.0,63,0.00,,,1.00,VWS V14.01,2013-03-10 16:25:00,
2013-03-10 11:30:00,57.6,46.7,29.40,NW,309,4.0,5.0,67,0.00,,,1.00,VWS V14.01,2013-03-10 16:30:00,
2013-03-10 11:35:00,58.4,47.1,29.40,NW,309,4.0,7.0,66,0.00,,,1.00,VWS V14.01,2013-03-10 16:35:00,
2013-03-10 11:40:00,58.5,45.5,29.40,NW,319,6.0,6.0,62,0.00,,,1.00,VWS V14.01,2013-03-10 16:40:00,
2013-03-10 11:45:00,58.0,45.1,29.40,NNW,344,3.0,11.0,62,0.00,,,1.00,VWS V14.01,2013-03-10 16:45:00,
2013-03-10 11:50:00,57.8,46.1,29.40,WNW,284,5.0,8.0,65,0.00,,,1.00,VWS V14.01,2013-03-10 16:50:00,
2013-03-10 11:55:00,58.6,46.9,29.40,NW,306,4.0,8.0,65,0.00,,,1.00,VWS V14.01,2013-03-10 16:55:00,
2013-03-10 12:00:00,59.7,47.5,29.40,WNW,290,6.0,7.0,64,0.00,,,1.00,VWS V14.01,2013-03-10 17:00:00,
2013-03-10 12:05:00,60.3,47.7,29.41,NW,307,1.0,7.0,63,0.00,,,1.00,VWS V14.01,2013-03-10 17:05:00,
2013-03-10 12:10:00,60.1,45.3,29.41,West,281,2.0,3.0,58,0.00,,,1.00,VWS V14.01,2013-03-10 17:10:00,
2013-03-10 12:15:00,59.3,47.5,29.41,WNW,303,5.0,9.0,65,0.00,,,1.00,VWS V14.01,2013-03-10 17:15:00,
2013-03-10 12:20:00,60.4,49.4,29.41,WNW,300,2.0,5.0,67,0.00,,,1.00,VWS V14.01,2013-03-10 17:20:00,
2013-03-10 12:25:00,60.7,47.6,29.41,NW,310,6.0,7.0,62,0.00,,,1.00,VWS V14.01,2013-03-10 17:25:00,
2013-03-10 12:30:00,61.1,48.8,29.41,NW,315,5.0,5.0,64,0.00,,,1.00,VWS V14.01,2013-03-10 17:30:00,
2013-03-10 12:35:00,60.4,44.2,29.41,NNW,330,4.0,11.0,55,0.00,,,1.00,VWS V14.01,2013-03-10 17:35:00,
2013-03-10 12:40:00,60.5,47.0,29.41,North,5,6.0,6.0,61,0.00,,,1.00,VWS V14.01,2013-03-10 17:40:00,
2013-03-10 12:45:00,60.4,46.0,29.41,WNW,302,3.0,12.0,59,0.00,,,1.00,VWS V14.01,2013-03-10 17:45:00,
2013-03-10 12:50:00,60.6,46.2,29.41,NW,315,5.0,6.0,59,0.00,,,1.00,VWS V14.01,2013-03-10 17:50:00,
2013-03-10 12:55:00,60.3,45.5,29.41,NNW,327,7.0,10.0,58,0.00,,,1.00,VWS V14.01,2013-03-10 17:55:00,
2013-03-10 13:00:00,59.5,44.3,29.41,NW,321,7.0,7.0,57,0.00,,,1.00,VWS V14.01,2013-03-10 18:00:00,
2013-03-10 13:06:00,59.3,45.0,29.41,WNW,299,3.0,9.0,59,0.00,,,1.00,VWS V14.01,2013-03-10 18:06:00,
2013-03-10 13:11:00,60.7,44.9,29.41,NNW,327,3.0,9.0,56,0.00,,,1.00,VWS V14.01,2013-03-10 18:11:00,
2013-03-10 13:16:00,60.1,43.4,29.41,North,355,5.0,13.0,54,0.00,,,1.00,VWS V14.01,2013-03-10 18:16:00,
2013-03-10 13:21:00,60.3,45.9,29.41,NNW,327,5.0,5.0,59,0.00,,,1.00,VWS V14.01,2013-03-10 18:21:00,
2013-03-10 13:26:00,61.0,46.6,29.41,NW,320,4.0,15.0,59,0.00,,,1.00,VWS V14.01,2013-03-10 18:26:00,
2013-03-10 13:31:00,60.7,45.8,29.40,NW,324,7.0,7.0,58,0.00,,,1.00,VWS V14.01,2013-03-10 18:31:00,
2013-03-10 13:36:00,60.9,45.6,29.40,WNW,299,4.0,10.0,57,0.00,,,1.00,VWS V14.01,2013-03-10 18:36:00,
2013-03-10 13:41:00,60.2,44.5,29.40,NW,315,8.0,10.0,56,0.00,,,1.00,VWS V14.01,2013-03-10 18:41:00,
2013-03-10 13:46:00,60.6,45.8,29.40,NNW,327,5.0,10.0,58,0.00,,,1.00,VWS V14.01,2013-03-10 18:46:00,
2013-03-10 13:51:00,61.1,45.3,29.40,WNW,295,6.0,8.0,56,0.00,,,1.00,VWS V14.01,2013-03-10 18:51:00,
2013-03-10 13:56:00,61.8,45.5,29.40,NW,312,3.0,10.0,55,0.00,,,1.00,VWS V14.01,2013-03-10 18:56:00,
2013-03-10 14:01:00,60.6,43.9,29.40,NNW,336,3.0,6.0,54,0.00,,,1.00,VWS V14.01,2013-03-10 19:01:00,
2013-03-10 14:06:00,60.9,46.0,29.40,NW,304,4.0,11.0,58,0.00,,,1.00,VWS V14.01,2013-03-10 19:06:00,
2013-03-10 14:11:00,61.5,46.1,29.40,WNW,301,4.0,7.0,57,0.00,,,1.00,VWS V14.01,2013-03-10 19:11:00,
2013-03-10 14:16:00,61.9,46.0,29.41,WNW,298,4.0,8.0,56,0.00,,,1.00,VWS V14.01,2013-03-10 19:16:00,
2013-03-10 14:21:00,61.0,44.7,29.40,NW,313,4.0,7.0,55,0.00,,,1.00,VWS V14.01,2013-03-10 19:21:00,
2013-03-10 14:26:00,62.0,47.1,29.41,WNW,296,4.0,8.0,58,0.00,,,1.00,VWS V14.01,2013-03-10 19:26:00,
2013-03-10 14:31:00,62.4,45.1,29.41,NW,312,5.0,9.0,53,0.00,,,1.00,VWS V14.01,2013-03-10 19:31:00,
2013-03-10 14:36:00,60.5,43.8,29.41,NNW,336,8.0,13.0,54,0.00,,,1.00,VWS V14.01,2013-03-10 19:36:00,
2013-03-10 14:41:00,60.8,45.0,29.40,NNW,344,4.0,4.0,56,0.00,,,1.00,VWS V14.01,2013-03-10 19:41:00,
2013-03-10 14:45:00,61.2,44.9,29.41,NNW,331,7.0,11.0,55,0.00,,,1.00,VWS V14.01,2013-03-10 19:45:00,
2013-03-10 14:51:00,60.3,43.6,29.41,NNE,19,5.0,10.0,54,0.00,,,1.00,VWS V14.01,2013-03-10 19:51:00,
2013-03-10 14:56:00,59.5,43.3,29.41,NW,315,5.0,14.0,55,0.00,,,1.00,VWS V14.01,2013-03-10 19:56:00,
2013-03-10 15:01:00,61.3,45.5,29.41,WNW,302,3.0,7.0,56,0.00,,,1.00,VWS V14.01,2013-03-10 20:01:00,
2013-03-10 15:06:00,61.5,45.2,29.41,NNW,343,5.0,9.0,55,0.00,,,1.00,VWS V14.01,2013-03-10 20:06:00,
2013-03-10 15:11:00,61.1,44.3,29.41,NW,320,3.0,8.0,54,0.00,,,1.00,VWS V14.01,2013-03-10 20:11:00,
2013-03-10 15:16:00,60.2,43.5,29.41,NNW,332,6.0,12.0,54,0.00,,,1.00,VWS V14.01,2013-03-10 20:16:00,
2013-03-10 15:21:00,60.6,44.4,29.41,NW,313,3.0,9.0,55,0.00,,,1.00,VWS V14.01,2013-03-10 20:21:00,
2013-03-10 15:26:00,60.0,43.3,29.41,NW,317,4.0,14.0,54,0.00,,,1.00,VWS V14.01,2013-03-10 20:26:00,
2013-03-10 15:31:00,59.4,42.8,29.41,NNW,346,4.0,9.0,54,0.00,,,1.00,VWS V14.01,2013-03-10 20:31:00,
2013-03-10 15:36:00,59.9,43.7,29.41,NW,322,6.0,11.0,55,0.00,,,1.00,VWS V14.01,2013-03-10 20:36:00,
2013-03-10 15:41:00,58.6,41.5,29.41,NW,317,5.0,11.0,53,0.00,,,1.00,VWS V14.01,2013-03-10 20:41:00,
2013-03-10 15:47:00,58.9,44.2,29.41,NNW,331,9.0,11.0,58,0.00,,,1.00,VWS V14.01,2013-03-10 20:47:00,
2013-03-10 15:52:00,58.5,42.4,29.42,NW,323,4.0,10.0,55,0.00,,,1.00,VWS V14.01,2013-03-10 20:52:00,
2013-03-10 15:57:00,58.6,43.0,29.42,NW,321,6.0,11.0,56,0.00,,,1.00,VWS V14.01,2013-03-10 20:57:00,
2013-03-10 16:02:00,57.8,42.2,29.42,NW,306,3.0,13.0,56,0.00,,,1.00,VWS V14.01,2013-03-10 21:02:00,
2013-03-10 16:07:00,57.7,42.1,29.42,NNW,340,8.0,14.0,56,0.00,,,1.00,VWS V14.01,2013-03-10 21:07:00,
2013-03-10 16:12:00,58.3,42.7,29.42,NNW,334,6.0,11.0,56,0.00,,,1.00,VWS V14.01,2013-03-10 21:12:00,
2013-03-10 16:17:00,57.3,40.8,29.42,NW,313,4.0,15.0,54,0.00,,,1.00,VWS V14.01,2013-03-10 21:17:00,
2013-03-10 16:22:00,57.5,41.5,29.42,NNW,346,6.0,9.0,55,0.00,,,1.00,VWS V14.01,2013-03-10 21:22:00,
2013-03-10 16:27:00,58.1,43.0,29.42,North,360,4.0,11.0,57,0.00,,,1.00,VWS V14.01,2013-03-10 21:27:00,
2013-03-10 16:32:00,57.6,42.0,29.42,West,279,4.0,9.0,56,0.00,,,1.00,VWS V14.01,2013-03-10 21:32:00,
2013-03-10 16:37:00,58.0,42.4,29.42,NNW,339,2.0,9.0,56,0.00,,,1.00,VWS V14.01,2013-03-10 21:37:00,
2013-03-10 16:42:00,57.7,42.6,29.42,NNW,336,7.0,14.0,57,0.00,,,1.00,VWS V14.01,2013-03-10 21:42:00,
2013-03-10 16:47:00,57.1,41.6,29.43,North,10,8.0,14.0,56,0.00,,,1.00,VWS V14.01,2013-03-10 21:47:00,
2013-03-10 16:52:00,56.5,41.5,29.43,NNW,345,1.0,5.0,57,0.00,,,1.00,VWS V14.01,2013-03-10 21:52:00,
2013-03-10 16:57:00,56.4,40.0,29.43,WNW,291,7.0,12.0,54,0.00,,,1.00,VWS V14.01,2013-03-10 21:57:00,
2013-03-10 17:02:00,56.1,40.6,29.44,NNW,327,12.0,12.0,56,0.00,,,1.00,VWS V14.01,2013-03-10 22:02:00,
2013-03-10 17:07:00,55.5,40.1,29.43,NNW,341,3.0,12.0,56,0.00,,,1.00,VWS V14.01,2013-03-10 22:07:00,
2013-03-10 17:12:00,55.7,40.7,29.43,NNW,338,3.0,7.0,57,0.00,,,1.00,VWS V14.01,2013-03-10 22:12:00,
2013-03-10 17:17:00,55.6,40.6,29.43,North,360,4.0,7.0,57,0.00,,,1.00,VWS V14.01,2013-03-10 22:17:00,
2013-03-10 17:22:00,55.5,40.5,29.43,WNW,300,5.0,8.0,57,0.00,,,1.00,VWS V14.01,2013-03-10 22:22:00,
2013-03-10 17:27:00,55.2,39.8,29.43,NNW,343,9.0,9.0,56,0.00,,,1.00,VWS V14.01,2013-03-10 22:27:00,
2013-03-10 17:32:00,54.7,39.3,29.43,NW,321,10.0,10.0,56,0.00,,,1.00,VWS V14.01,2013-03-10 22:32:00,
2013-03-10 17:37:00,54.4,39.5,29.44,WNW,294,3.0,13.0,57,0.00,,,1.00,VWS V14.01,2013-03-10 22:37:00,
2013-03-10 17:42:00,54.2,39.3,29.44,NW,314,5.0,9.0,57,0.00,,,1.00,VWS V14.01,2013-03-10 22:42:00,
2013-03-10 17:47:00,54.1,39.2,29.44,NNW,342,6.0,11.0,57,0.00,,,1.00,VWS V14.01,2013-03-10 22:47:00,
2013-03-10 17:52:00,54.0,39.1,29.44,NW,312,9.0,9.0,57,0.00,,,1.00,VWS V14.01,2013-03-10 22:52:00,
2013-03-10 17:57:00,53.9,39.0,29.44,NW,323,3.0,12.0,57,0.00,,,1.00,VWS V14.01,2013-03-10 22:57:00,
2013-03-10 18:02:00,53.8,39.4,29.44,NW,315,4.0,10.0,58,0.00,,,1.00,VWS V14.01,2013-03-10 23:02:00,
2013-03-10 18:07:00,53.8,39.8,29.44,NNW,337,4.0,10.0,59,0.00,,,1.00,VWS V14.01,2013-03-10 23:07:00,
2013-03-10 18:12:00,53.7,39.3,29.44,NNW,344,6.0,12.0,58,0.00,,,1.00,VWS V14.01,2013-03-10 23:12:00,
2013-03-10 18:17:00,53.5,38.7,29.45,WNW,288,6.0,13.0,57,0.00,,,1.00,VWS V14.01,2013-03-10 23:17:00,
2013-03-10 18:22:00,53.3,38.9,29.45,NNW,334,5.0,11.0,58,0.00,,,1.00,VWS V14.01,2013-03-10 23:22:00,
2013-03-10 18:27:00,53.2,38.4,29.45,NNW,344,5.0,11.0,57,0.00,,,1.00,VWS V14.01,2013-03-10 23:27:00,
2013-03-10 18:32:00,53.1,39.2,29.45,NNW,329,6.0,8.0,59,0.00,,,1.00,VWS V14.01,2013-03-10 23:32:00,
2013-03-10 18:37:00,52.8,38.0,29.45,NNW,344,10.0,12.0,57,0.00,,,1.00,VWS V14.01,2013-03-10 23:37:00,
2013-03-10 18:42:00,52.5,37.7,29.45,NNW,340,10.0,10.0,57,0.00,,,1.00,VWS V14.01,2013-03-10 23:42:00,
2013-03-10 18:47:00,52.3,38.0,29.45,NNW,345,3.0,10.0,58,0.00,,,1.00,VWS V14.01,2013-03-10 23:47:00,
2013-03-10 18:52:00,52.2,37.9,29.45,NW,309,4.0,7.0,58,0.00,,,1.00,VWS V14.01,2013-03-10 23:52:00,
2013-03-10 18:57:00,52.0,37.7,29.46,NW,306,6.0,9.0,58,0.00,,,1.00,VWS V14.01,2013-03-10 23:57:00,
2013-03-10 19:02:00,51.7,37.4,29.46,NW,306,8.0,10.0,58,0.00,,,1.00,VWS V14.01,2013-03-11 00:02:00,
2013-03-10 19:07:00,51.5,37.2,29.46,NNW,329,8.0,11.0,58,0.00,,,1.00,VWS V14.01,2013-03-11 00:07:00,
2013-03-10 19:12:00,51.3,37.0,29.46,North,360,4.0,7.0,58,0.00,,,1.00,VWS V14.01,2013-03-11 00:12:00,
2013-03-10 19:17:00,51.2,37.4,29.47,North,349,6.0,9.0,59,0.00,,,1.00,VWS V14.01,2013-03-11 00:17:00,
2013-03-10 19:22:00,50.9,37.1,29.47,North,355,2.0,7.0,59,0.00,,,1.00,VWS V14.01,2013-03-11 00:22:00,
2013-03-10 19:27:00,50.7,37.3,29.47,North,360,3.0,7.0,60,0.00,,,1.00,VWS V14.01,2013-03-11 00:27:00,
2013-03-10 19:32:00,50.5,37.2,29.47,NNE,17,4.0,7.0,60,0.00,,,1.00,VWS V14.01,2013-03-11 00:32:00,
2013-03-10 19:37:00,50.3,37.0,29.48,North,355,4.0,7.0,60,0.00,,,1.00,VWS V14.01,2013-03-11 00:37:00,
2013-03-10 19:42:00,50.1,37.2,29.48,North,360,2.0,6.0,61,0.00,,,1.00,VWS V14.01,2013-03-11 00:42:00,
2013-03-10 19:47:00,49.9,37.4,29.48,North,355,3.0,6.0,62,0.00,,,1.00,VWS V14.01,2013-03-11 00:47:00,
2013-03-10 19:52:00,49.6,37.1,29.48,North,355,1.0,2.0,62,0.00,,,1.00,VWS V14.01,2013-03-11 00:52:00,
2013-03-10 19:57:00,49.4,37.3,29.49,North,355,1.0,4.0,63,0.00,,,1.00,VWS V14.01,2013-03-11 00:57:00,
2013-03-10 20:02:00,49.2,37.2,29.49,North,355,0.0,4.0,63,0.00,,,1.00,VWS V14.01,2013-03-11 01:02:00,
2013-03-10 20:07:00,48.9,37.3,29.50,North,5,1.0,6.0,64,0.00,,,1.00,VWS V14.01,2013-03-11 01:07:00,
2013-03-10 20:12:00,48.6,37.4,29.50,North,5,2.0,5.0,65,0.00,,,1.00,VWS V14.01,2013-03-11 01:12:00,
2013-03-10 20:17:00,48.3,37.1,29.50,North,5,4.0,5.0,65,0.00,,,1.00,VWS V14.01,2013-03-11 01:17:00,
2013-03-10 20:22:00,48.1,36.9,29.50,North,9,1.0,4.0,65,0.00,,,1.00,VWS V14.01,2013-03-11 01:22:00,
2013-03-10 20:27:00,48.0,37.2,29.51,North,9,2.0,4.0,66,0.00,,,1.00,VWS V14.01,2013-03-11 01:27:00,
2013-03-10 20:32:00,47.8,37.4,29.51,North,9,1.0,4.0,67,0.00,,,1.00,VWS V14.01,2013-03-11 01:32:00,
2013-03-10 20:37:00,47.6,37.2,29.51,North,9,0.0,4.0,67,0.00,,,1.00,VWS V14.01,2013-03-11 01:37:00,
2013-03-10 20:42:00,47.4,37.0,29.52,North,9,0.0,1.0,67,0.00,,,1.00,VWS V14.01,2013-03-11 01:42:00,
2013-03-10 20:47:00,47.2,37.2,29.52,North,9,1.0,5.0,68,0.00,,,1.00,VWS V14.01,2013-03-11 01:47:00,
2013-03-10 20:52:00,47.0,37.4,29.52,North,5,5.0,5.0,69,0.00,,,1.00,VWS V14.01,2013-03-11 01:52:00,
2013-03-10 20:57:00,46.8,37.2,29.52,North,355,5.0,6.0,69,0.00,,,1.00,VWS V14.01,2013-03-11 01:57:00,
2013-03-10 21:02:00,46.7,37.1,29.52,North,351,2.0,4.0,69,0.00,,,1.00,VWS V14.01,2013-03-11 02:02:00,
2013-03-10 21:07:00,46.6,37.0,29.53,NNW,333,3.0,7.0,69,0.00,,,1.00,VWS V14.01,2013-03-11 02:07:00,
2013-03-10 21:12:00,46.5,36.9,29.53,North,355,5.0,7.0,69,0.00,,,1.00,VWS V14.01,2013-03-11 02:12:00,
2013-03-10 21:17:00,46.6,36.6,29.54,NW,319,2.0,9.0,68,0.00,,,1.00,VWS V14.01,2013-03-11 02:17:00,
2013-03-10 21:22:00,46.7,36.7,29.54,North,355,4.0,8.0,68,0.00,,,1.00,VWS V14.01,2013-03-11 02:22:00,
2013-03-10 21:27:00,46.7,36.3,29.54,North,360,3.0,8.0,67,0.00,,,1.00,VWS V14.01,2013-03-11 02:27:00,
2013-03-10 21:32:00,46.8,36.0,29.55,NNW,333,5.0,10.0,66,0.00,,,1.00,VWS V14.01,2013-03-11 02:32:00,
2013-03-10 21:38:00,46.8,36.0,29.55,NNW,338,7.0,10.0,66,0.00,,,1.00,VWS V14.01,2013-03-11 02:38:00,
2013-03-10 21:43:00,46.7,36.0,29.56,North,355,3.0,8.0,66,0.00,,,1.00,VWS V14.01,2013-03-11 02:43:00,
2013-03-10 21:48:00,46.6,35.9,29.55,NNE,16,7.0,9.0,66,0.00,,,1.00,VWS V14.01,2013-03-11 02:48:00,
2013-03-10 21:53:00,46.5,35.4,29.56,NNE,23,9.0,11.0,65,0.00,,,1.00,VWS V14.01,2013-03-11 02:53:00,
2013-03-10 21:58:00,46.4,35.3,29.56,NNW,338,4.0,11.0,65,0.00,,,1.00,VWS V14.01,2013-03-11 02:58:00,
2013-03-10 22:03:00,46.3,35.2,29.56,NNW,340,5.0,10.0,65,0.00,,,1.00,VWS V14.01,2013-03-11 03:03:00,
2013-03-10 22:08:00,46.2,35.1,29.56,North,360,2.0,10.0,65,0.00,,,1.00,VWS V14.01,2013-03-11 03:08:00,
2013-03-10 22:13:00,46.0,35.3,29.56,North,11,3.0,4.0,66,0.00,,,1.00,VWS V14.01,2013-03-11 03:13:00,
2013-03-10 22:18:00,45.8,35.1,29.56,North,355,4.0,5.0,66,0.00,,,1.00,VWS V14.01,2013-03-11 03:18:00,
2013-03-10 22:23:00,45.6,34.9,29.56,NNW,348,2.0,7.0,66,0.00,,,1.00,VWS V14.01,2013-03-11 03:23:00,
2013-03-10 22:28:00,45.4,35.1,29.56,North,9,5.0,8.0,67,0.00,,,1.00,VWS V14.01,2013-03-11 03:28:00,
2013-03-10 22:33:00,45.2,34.9,29.56,North,5,3.0,5.0,67,0.00,,,1.00,VWS V14.01,2013-03-11 03:33:00,
2013-03-10 22:38:00,45.1,34.8,29.55,North,5,2.0,5.0,67,0.00,,,1.00,VWS V14.01,2013-03-11 03:38:00,
2013-03-10 22:43:00,44.9,34.6,29.55,North,5,3.0,4.0,67,0.00,,,1.00,VWS V14.01,2013-03-11 03:43:00,
2013-03-10 22:48:00,44.7,34.8,29.55,North,360,2.0,6.0,68,0.00,,,1.00,VWS V14.01,2013-03-11 03:48:00,
2013-03-10 22:53:00,44.6,34.7,29.55,North,360,1.0,5.0,68,0.00,,,1.00,VWS V14.01,2013-03-11 03:53:00,
2013-03-10 22:58:00,44.4,34.5,29.54,North,360,2.0,5.0,68,0.00,,,1.00,VWS V14.01,2013-03-11 03:58:00,
2013-03-10 23:00:00,44.3,34.4,29.54,North,360,3.0,5.0,68,0.00,,,1.00,VWS V14.01,2013-03-11 04:00:00,
2013-03-10 23:05:00,44.1,34.6,29.54,North,360,3.0,4.0,69,0.00,,,1.00,VWS V14.01,2013-03-11 04:05:00,
2013-03-10 23:10:00,43.9,34.4,29.53,North,360,4.0,5.0,69,0.00,,,1.00,VWS V14.01,2013-03-11 04:10:00,
2013-03-10 23:15:00,43.6,34.5,29.53,North,360,3.0,5.0,70,0.00,,,1.00,VWS V14.01,2013-03-11 04:15:00,
2013-03-10 23:20:00,43.4,34.3,29.53,North,360,4.0,5.0,70,0.00,,,1.00,VWS V14.01,2013-03-11 04:20:00,
2013-03-10 23:25:00,43.3,34.5,29.53,North,5,1.0,4.0,71,0.00,,,1.00,VWS V14.01,2013-03-11 04:25:00,
2013-03-10 23:30:00,43.1,34.3,29.54,North,5,1.0,4.0,71,0.00,,,1.00,VWS V14.01,2013-03-11 04:30:00,
2013-03-10 23:35:00,43.0,34.2,29.54,North,5,0.0,2.0,71,0.00,,,1.00,VWS V14.01,2013-03-11 04:35:00,
2013-03-10 23:40:00,42.9,34.5,29.55,North,5,1.0,2.0,72,0.00,,,1.00,VWS V14.01,2013-03-11 04:40:00,
2013-03-10 23:45:00,42.8,34.4,29.55,North,5,0.0,2.0,72,0.00,,,1.00,VWS V14.01,2013-03-11 04:45:00,
2013-03-10 23:50:00,42.7,34.3,29.55,North,5,0.0,2.0,72,0.00,,,1.00,VWS V14.01,2013-03-11 04:50:00,
2013-03-10 23:55:00,42.6,34.2,29.55,North,5,0.0,0.0,72,0.00,,,1.00,VWS V14.01,2013-03-11 04:55:00,